| time (UTC) | temp F | wind direction | speed MPH | gust MPH | rain 1hr in | rain 24hr in | rain mn in | humidity % | barometer mb |
| 20260508004033 | 58 | 0 | 0.0 | 0.0 | 0.00 | 0.00 | 0.00 | 45 | 1014.6 |
| 20260508003531 | 58 | 0 | 0.0 | 0.0 | 0.00 | 0.00 | 0.00 | 40 | 1014.5 |
| 20260508003044 | 59 | 0 | 0.0 | 0.0 | 0.00 | 0.00 | 0.00 | 40 | 1014.4 |
| 20260508002530 | 60 | 0 | 0.0 | 1.0 | 0.00 | 0.00 | 0.00 | 39 | 1014.4 |
| 20260508002030 | 61 | 0 | 0.0 | 1.0 | 0.00 | 0.00 | 0.00 | 39 | 1014.3 |
| 20260508001607 | 61 | 53 | 0.0 | 1.0 | 0.00 | 0.00 | 0.00 | 38 | 1014.3 |
| 20260508001031 | 62 | 0 | 0.0 | 4.0 | 0.00 | 0.00 | 0.00 | 38 | 1014.3 |
| 20260508000529 | 62 | 0 | 1.0 | 4.0 | 0.00 | 0.00 | 0.00 | 38 | 1014.3 |
| 20260508000045 | 63 | 326 | 0.0 | 2.0 | 0.00 | 0.00 | 0.00 | 34 | 1014.1 |
| 20260507235532 | 65 | 0 | 0.0 | 1.0 | 0.00 | 0.00 | 0.00 | 35 | 1014.1 |
| 20260507235029 | 64 | 0 | 0.0 | 1.0 | 0.00 | 0.00 | 0.00 | 34 | 1014.0 |
| 20260507234544 | 64 | 0 | 0.0 | 3.0 | 0.00 | 0.00 | 0.00 | 33 | 1014.1 |
| 20260507234053 | 63 | 0 | 0.0 | 4.0 | 0.00 | 0.00 | 0.00 | 34 | 1014.1 |
| 20260507233529 | 63 | 58 | 2.0 | 4.0 | 0.00 | 0.00 | 0.00 | 34 | 1014.1 |
| 20260507233046 | 64 | 0 | 0.0 | 4.0 | 0.00 | 0.00 | 0.00 | 33 | 1014.1 |
| 20260507232531 | 63 | 50 | 0.0 | 6.0 | 0.00 | 0.00 | 0.00 | 35 | 1014.2 |
| 20260507232030 | 62 | 18 | 1.0 | 6.0 | 0.00 | 0.00 | 0.00 | 36 | 1014.1 |
| 20260507231547 | 62 | 354 | 1.0 | 6.0 | 0.00 | 0.00 | 0.00 | 35 | 1014.3 |
| 20260507231027 | 62 | 2 | 1.0 | 7.0 | 0.00 | 0.00 | 0.00 | 34 | 1014.3 |
| 20260507230528 | 62 | 346 | 4.0 | 8.0 | 0.00 | 0.00 | 0.00 | 36 | 1014.4 |
| 20260507230048 | 62 | 350 | 4.0 | 8.0 | 0.00 | 0.00 | 0.00 | 35 | 1014.3 |
| 20260507225530 | 62 | 345 | 4.0 | 7.0 | 0.00 | 0.00 | 0.00 | 35 | 1014.3 |
| 20260507225027 | 62 | 340 | 3.0 | 7.0 | 0.00 | 0.00 | 0.00 | 35 | 1014.3 |
| 20260507224553 | 63 | 342 | 3.0 | 6.0 | 0.00 | 0.00 | 0.00 | 36 | 1014.3 |
| 20260507224031 | 63 | 18 | 1.0 | 4.0 | 0.00 | 0.00 | 0.00 | 34 | 1014.4 |
| 20260507223531 | 65 | 0 | 0.0 | 3.0 | 0.00 | 0.00 | 0.00 | 34 | 1014.5 |
| 20260507223047 | 64 | 0 | 0.0 | 4.0 | 0.00 | 0.00 | 0.00 | 35 | 1014.4 |
| 20260507222526 | 63 | 210 | 0.0 | 5.0 | 0.00 | 0.00 | 0.00 | 35 | 1014.5 |
| 20260507222029 | 63 | 0 | 1.0 | 5.0 | 0.00 | 0.00 | 0.00 | 36 | 1014.4 |
| 20260507221545 | 63 | 74 | 3.0 | 7.0 | 0.00 | 0.00 | 0.00 | 35 | 1014.4 |
| 20260507221031 | 63 | 57 | 1.0 | 7.0 | 0.00 | 0.00 | 0.00 | 36 | 1014.4 |
| 20260507220530 | 63 | 348 | 3.0 | 8.0 | 0.00 | 0.00 | 0.00 | 36 | 1014.4 |
| 20260507220047 | 63 | 95 | 4.0 | 8.0 | 0.00 | 0.00 | 0.00 | 37 | 1014.4 |
| 20260507215533 | 63 | 340 | 1.0 | 5.0 | 0.00 | 0.00 | 0.00 | 36 | 1014.3 |
| 20260507215032 | 62 | 6 | 4.0 | 7.0 | 0.00 | 0.00 | 0.00 | 36 | 1014.2 |
| 20260507214545 | 63 | 321 | 1.0 | 10.0 | 0.00 | 0.00 | 0.00 | 34 | 1014.4 |
| 20260507214030 | 62 | 343 | 3.0 | 10.0 | 0.00 | 0.00 | 0.00 | 34 | 1014.5 |
| 20260507213530 | 63 | 350 | 1.0 | 8.0 | 0.00 | 0.00 | 0.00 | 36 | 1014.5 |
| 20260507213047 | 63 | 0 | 0.0 | 3.0 | 0.00 | 0.00 | 0.00 | 34 | 1014.5 |
| 20260507212527 | 63 | 143 | 0.0 | 3.0 | 0.00 | 0.00 | 0.00 | 37 | 1014.4 |
| 20260507212030 | 63 | 0 | 0.0 | 6.0 | 0.00 | 0.00 | 0.00 | 35 | 1014.4 |
| 20260507211546 | 63 | 71 | 0.0 | 6.0 | 0.00 | 0.00 | 0.00 | 36 | 1014.4 |
| 20260507211030 | 62 | 4 | 2.0 | 10.0 | 0.00 | 0.00 | 0.00 | 37 | 1014.5 |
| 20260507210531 | 62 | 4 | 2.0 | 10.0 | 0.00 | 0.00 | 0.00 | 37 | 1014.5 |
| 20260507210051 | 61 | 355 | 4.0 | 11.0 | 0.00 | 0.00 | 0.00 | 35 | 1014.4 |
| 20260507205530 | 61 | 356 | 6.0 | 11.0 | 0.00 | 0.00 | 0.00 | 37 | 1014.5 |
| 20260507205027 | 62 | 352 | 0.0 | 12.0 | 0.00 | 0.00 | 0.00 | 37 | 1014.3 |
| 20260507204545 | 61 | 17 | 6.0 | 12.0 | 0.00 | 0.00 | 0.00 | 36 | 1014.4 |
| 20260507204031 | 62 | 341 | 3.0 | 6.0 | 0.00 | 0.00 | 0.00 | 35 | 1014.4 |
| 20260507203530 | 62 | 195 | 1.0 | 9.0 | 0.00 | 0.00 | 0.00 | 35 | 1014.5 |
| 20260507203042 | 61 | 204 | 5.0 | 9.0 | 0.00 | 0.00 | 0.00 | 37 | 1014.5 |
| 20260507202530 | 63 | 78 | 1.0 | 6.0 | 0.00 | 0.00 | 0.00 | 39 | 1014.6 |
| 20260507202029 | 62 | 256 | 1.0 | 11.0 | 0.00 | 0.00 | 0.00 | 37 | 1014.6 |
| 20260507201551 | 61 | 252 | 4.0 | 13.0 | 0.00 | 0.00 | 0.00 | 35 | 1014.6 |
| 20260507201030 | 61 | 78 | 5.0 | 13.0 | 0.00 | 0.00 | 0.00 | 36 | 1014.6 |
| 20260507200532 | 61 | 0 | 4.0 | 10.0 | 0.00 | 0.00 | 0.00 | 35 | 1014.6 |
| 20260507200040 | 62 | 34 | 1.0 | 10.0 | 0.00 | 0.00 | 0.00 | 36 | 1014.6 |
| 20260507195530 | 61 | 68 | 5.0 | 12.0 | 0.00 | 0.00 | 0.00 | 35 | 1014.7 |
| 20260507195030 | 61 | 6 | 4.0 | 12.0 | 0.00 | 0.00 | 0.00 | 36 | 1014.6 |
| 20260507194545 | 62 | 52 | 0.0 | 8.0 | 0.00 | 0.00 | 0.00 | 37 | 1014.6 |
| 20260507194030 | 61 | 4 | 4.0 | 8.0 | 0.00 | 0.00 | 0.00 | 37 | 1014.8 |
| 20260507193531 | 61 | 0 | 2.0 | 10.0 | 0.00 | 0.00 | 0.00 | 36 | 1014.7 |
| 20260507193050 | 60 | 101 | 2.0 | 10.0 | 0.00 | 0.00 | 0.00 | 36 | 1014.8 |
| 20260507192530 | 60 | 341 | 5.0 | 10.0 | 0.00 | 0.00 | 0.00 | 36 | 1014.8 |
| 20260507192031 | 61 | 40 | 4.0 | 9.0 | 0.00 | 0.00 | 0.00 | 38 | 1014.7 |
| 20260507191551 | 61 | 58 | 3.0 | 9.0 | 0.00 | 0.00 | 0.00 | 37 | 1014.9 |
| 20260507191031 | 61 | 8 | 1.0 | 9.0 | 0.00 | 0.00 | 0.00 | 36 | 1014.8 |
| 20260507190530 | 61 | 335 | 3.0 | 11.0 | 0.00 | 0.00 | 0.00 | 38 | 1014.9 |
| 20260507190053 | 60 | 2 | 3.0 | 13.0 | 0.00 | 0.00 | 0.00 | 37 | 1014.9 |
| 20260507185531 | 60 | 6 | 5.0 | 14.0 | 0.00 | 0.00 | 0.00 | 37 | 1014.9 |
| 20260507185033 | 60 | 41 | 6.0 | 14.0 | 0.00 | 0.00 | 0.00 | 34 | 1014.9 |
| 20260507184550 | 60 | 16 | 4.0 | 14.0 | 0.00 | 0.00 | 0.00 | 33 | 1014.9 |
| 20260507184027 | 60 | 158 | 4.0 | 10.0 | 0.00 | 0.00 | 0.00 | 37 | 1014.9 |
| 20260507183530 | 60 | 0 | 1.0 | 7.0 | 0.00 | 0.00 | 0.00 | 35 | 1014.9 |
| 20260507183046 | 61 | 18 | 1.0 | 10.0 | 0.00 | 0.00 | 0.00 | 38 | 1014.9 |
| 20260507182531 | 59 | 6 | 6.0 | 13.0 | 0.00 | 0.00 | 0.00 | 36 | 1015.0 |
| 20260507182028 | 59 | 322 | 5.0 | 14.0 | 0.00 | 0.00 | 0.00 | 36 | 1015.1 |
| 20260507181544 | 58 | 329 | 7.0 | 14.0 | 0.00 | 0.00 | 0.00 | 34 | 1014.9 |
| 20260507181031 | 59 | 36 | 5.0 | 14.0 | 0.00 | 0.00 | 0.00 | 35 | 1015.0 |
| 20260507180529 | 59 | 96 | 3.0 | 11.0 | 0.00 | 0.00 | 0.00 | 35 | 1014.9 |
| 20260507180044 | 59 | 7 | 1.0 | 11.0 | 0.00 | 0.00 | 0.00 | 37 | 1015.0 |
| 20260507175531 | 58 | 63 | 5.0 | 11.0 | 0.00 | 0.00 | 0.00 | 34 | 1015.2 |
| 20260507175030 | 58 | 341 | 3.0 | 11.0 | 0.00 | 0.00 | 0.00 | 34 | 1015.3 |
| 20260507174554 | 58 | 334 | 5.0 | 11.0 | 0.00 | 0.00 | 0.00 | 33 | 1015.4 |
| 20260507174031 | 59 | 51 | 6.0 | 11.0 | 0.00 | 0.00 | 0.00 | 35 | 1015.4 |
| 20260507173532 | 60 | 346 | 2.0 | 10.0 | 0.00 | 0.00 | 0.00 | 33 | 1015.4 |
| 20260507173047 | 59 | 0 | 5.0 | 10.0 | 0.00 | 0.00 | 0.00 | 35 | 1015.4 |
| 20260507172530 | 58 | 344 | 1.0 | 11.0 | 0.00 | 0.00 | 0.00 | 36 | 1015.5 |
| 20260507172029 | 58 | 37 | 5.0 | 11.0 | 0.00 | 0.00 | 0.00 | 34 | 1015.6 |
| 20260507171545 | 59 | 17 | 6.0 | 10.0 | 0.00 | 0.00 | 0.00 | 38 | 1015.6 |
| 20260507171031 | 59 | 10 | 2.0 | 10.0 | 0.00 | 0.00 | 0.00 | 36 | 1015.6 |
| 20260507170530 | 57 | 341 | 6.0 | 10.0 | 0.00 | 0.00 | 0.00 | 33 | 1015.9 |
| 20260507170050 | 59 | 0 | 0.0 | 8.0 | 0.00 | 0.00 | 0.00 | 35 | 1015.8 |
| 20260507165530 | 58 | 0 | 2.0 | 8.0 | 0.00 | 0.00 | 0.00 | 37 | 1015.9 |
| 20260507165030 | 57 | 76 | 4.0 | 14.0 | 0.00 | 0.00 | 0.00 | 37 | 1016.1 |
| 20260507164543 | 57 | 65 | 4.0 | 14.0 | 0.00 | 0.00 | 0.00 | 41 | 1016.1 |
| 20260507164030 | 57 | 341 | 5.0 | 12.0 | 0.00 | 0.00 | 0.00 | 41 | 1016.2 |
| 20260507163529 | 57 | 32 | 7.0 | 12.0 | 0.00 | 0.00 | 0.00 | 38 | 1016.2 |
| 20260507163044 | 57 | 72 | 6.0 | 12.0 | 0.00 | 0.00 | 0.00 | 39 | 1016.3 |
| 20260507162529 | 57 | 33 | 5.0 | 15.0 | 0.00 | 0.00 | 0.00 | 38 | 1016.4 |
| 20260507162028 | 57 | 352 | 6.0 | 15.0 | 0.00 | 0.00 | 0.00 | 39 | 1016.4 |
| 20260507161544 | 57 | 30 | 3.0 | 14.0 | 0.00 | 0.00 | 0.00 | 39 | 1016.4 |
| 20260507161030 | 57 | 337 | 6.0 | 14.0 | 0.00 | 0.00 | 0.00 | 39 | 1016.4 |
| 20260507160533 | 57 | 19 | 6.0 | 13.0 | 0.00 | 0.00 | 0.00 | 41 | 1016.4 |
| 20260507160053 | 57 | 19 | 5.0 | 11.0 | 0.00 | 0.00 | 0.00 | 41 | 1016.4 |
| 20260507155533 | 57 | 334 | 4.0 | 8.0 | 0.00 | 0.00 | 0.00 | 40 | 1016.4 |
| 20260507155031 | 56 | 56 | 5.0 | 7.0 | 0.00 | 0.00 | 0.00 | 40 | 1016.3 |
| 20260507154548 | 56 | 89 | 0.0 | 9.0 | 0.00 | 0.00 | 0.00 | 43 | 1016.3 |
| 20260507154031 | 56 | 52 | 4.0 | 13.0 | 0.00 | 0.00 | 0.00 | 43 | 1016.3 |
| 20260507153529 | 56 | 25 | 4.0 | 14.0 | 0.00 | 0.00 | 0.00 | 46 | 1016.3 |
| 20260507153049 | 55 | 22 | 4.0 | 14.0 | 0.00 | 0.00 | 0.00 | 44 | 1016.2 |
| 20260507152527 | 56 | 356 | 4.0 | 13.0 | 0.00 | 0.00 | 0.00 | 43 | 1016.2 |
| 20260507152031 | 56 | 322 | 4.0 | 10.0 | 0.00 | 0.00 | 0.00 | 44 | 1016.2 |
| 20260507151539 | 55 | 299 | 4.0 | 10.0 | 0.00 | 0.00 | 0.00 | 45 | 1016.2 |
| 20260507151030 | 56 | 339 | 5.0 | 10.0 | 0.00 | 0.00 | 0.00 | 46 | 1016.3 |
| 20260507150527 | 55 | 6 | 3.0 | 10.0 | 0.00 | 0.00 | 0.00 | 48 | 1016.2 |
| 20260507150047 | 55 | 64 | 4.0 | 13.0 | 0.00 | 0.00 | 0.00 | 44 | 1016.2 |
| 20260507145530 | 54 | 346 | 7.0 | 13.0 | 0.00 | 0.00 | 0.00 | 44 | 1016.1 |
| 20260507145031 | 55 | 347 | 5.0 | 8.0 | 0.00 | 0.00 | 0.00 | 43 | 1016.1 |
| 20260507144543 | 55 | 14 | 4.0 | 9.0 | 0.00 | 0.00 | 0.00 | 43 | 1016.1 |
| 20260507144030 | 54 | 132 | 4.0 | 16.0 | 0.00 | 0.00 | 0.00 | 44 | 1016.2 |
| 20260507143532 | 54 | 40 | 7.0 | 16.0 | 0.00 | 0.00 | 0.00 | 43 | 1016.3 |
| 20260507143047 | 54 | 35 | 2.0 | 10.0 | 0.00 | 0.00 | 0.00 | 47 | 1016.3 |
| 20260507142530 | 54 | 43 | 3.0 | 10.0 | 0.00 | 0.00 | 0.00 | 48 | 1016.3 |
| 20260507142028 | 54 | 51 | 4.0 | 7.0 | 0.00 | 0.00 | 0.00 | 47 | 1016.1 |
| 20260507141542 | 54 | 10 | 3.0 | 10.0 | 0.00 | 0.00 | 0.00 | 47 | 1016.1 |
| 20260507141028 | 53 | 16 | 5.0 | 11.0 | 0.00 | 0.00 | 0.00 | 45 | 1016.2 |
| 20260507140527 | 53 | 77 | 5.0 | 11.0 | 0.00 | 0.00 | 0.00 | 45 | 1016.2 |
| 20260507140050 | 53 | 8 | 6.0 | 11.0 | 0.00 | 0.00 | 0.00 | 44 | 1016.2 |
| 20260507135532 | 53 | 360 | 3.0 | 8.0 | 0.00 | 0.00 | 0.00 | 46 | 1016.2 |
| 20260507135028 | 53 | 34 | 3.0 | 6.0 | 0.00 | 0.00 | 0.00 | 47 | 1016.2 |
| 20260507134550 | 53 | 76 | 1.0 | 8.0 | 0.00 | 0.00 | 0.00 | 47 | 1016.1 |
| 20260507134028 | 53 | 81 | 2.0 | 11.0 | 0.00 | 0.00 | 0.00 | 48 | 1016.1 |
| 20260507133529 | 52 | 51 | 4.0 | 11.0 | 0.00 | 0.00 | 0.00 | 50 | 1016.1 |
| 20260507133107 | 52 | 357 | 4.0 | 9.0 | 0.00 | 0.00 | 0.00 | 50 | 1016.3 |
| 20260507132528 | 52 | 66 | 4.0 | 8.0 | 0.00 | 0.00 | 0.00 | 52 | 1016.2 |
| 20260507132028 | 52 | 354 | 3.0 | 8.0 | 0.00 | 0.00 | 0.00 | 55 | 1016.2 |
| 20260507131556 | 51 | 80 | 3.0 | 8.0 | 0.00 | 0.00 | 0.00 | 56 | 1016.0 |
| 20260507131029 | 51 | 354 | 2.0 | 7.0 | 0.00 | 0.00 | 0.00 | 58 | 1016.0 |
| 20260507130529 | 51 | 1 | 2.0 | 7.0 | 0.00 | 0.00 | 0.00 | 59 | 1016.2 |
| 20260507130053 | 51 | 50 | 1.0 | 5.0 | 0.00 | 0.00 | 0.00 | 60 | 1016.1 |
| 20260507125528 | 50 | 78 | 3.0 | 5.0 | 0.00 | 0.00 | 0.00 | 59 | 1016.2 |
| 20260507125029 | 50 | 356 | 1.0 | 5.0 | 0.00 | 0.00 | 0.00 | 62 | 1016.2 |
| 20260507124552 | 50 | 10 | 1.0 | 6.0 | 0.00 | 0.00 | 0.00 | 63 | 1016.1 |
| 20260507124029 | 49 | 49 | 1.0 | 6.0 | 0.00 | 0.00 | 0.00 | 63 | 1015.9 |
| 20260507123529 | 49 | 342 | 0.0 | 6.0 | 0.00 | 0.00 | 0.00 | 66 | 1016.1 |
| 20260507123045 | 49 | 357 | 1.0 | 5.0 | 0.00 | 0.00 | 0.00 | 67 | 1016.1 |
| 20260507122531 | 48 | 0 | 0.0 | 5.0 | 0.00 | 0.00 | 0.00 | 69 | 1016.0 |
| 20260507122029 | 48 | 39 | 1.0 | 5.0 | 0.00 | 0.00 | 0.00 | 71 | 1016.0 |
| 20260507121554 | 47 | 0 | 1.0 | 5.0 | 0.00 | 0.00 | 0.00 | 73 | 1016.1 |
| 20260507121030 | 47 | 72 | 1.0 | 4.0 | 0.00 | 0.00 | 0.00 | 74 | 1016.3 |
| 20260507120529 | 47 | 45 | 0.0 | 5.0 | 0.00 | 0.00 | 0.00 | 75 | 1016.3 |
| 20260507120045 | 46 | 69 | 1.0 | 5.0 | 0.00 | 0.00 | 0.00 | 76 | 1016.2 |
| 20260507115529 | 46 | 59 | 1.0 | 3.0 | 0.00 | 0.00 | 0.00 | 77 | 1016.2 |
| 20260507115030 | 46 | 47 | 0.0 | 2.0 | 0.00 | 0.00 | 0.00 | 79 | 1016.2 |
| 20260507114548 | 46 | 0 | 0.0 | 4.0 | 0.00 | 0.00 | 0.00 | 80 | 1016.2 |
| 20260507114030 | 45 | 0 | 0.0 | 4.0 | 0.00 | 0.00 | 0.00 | 81 | 1016.2 |
| 20260507113530 | 44 | 0 | 1.0 | 4.0 | 0.00 | 0.00 | 0.00 | 82 | 1016.2 |
| 20260507113040 | 44 | 0 | 0.0 | 4.0 | 0.00 | 0.00 | 0.00 | 82 | 1016.2 |
| 20260507112529 | 44 | 0 | 0.0 | 4.0 | 0.00 | 0.00 | 0.00 | 83 | 1016.1 |
| 20260507112028 | 44 | 57 | 0.0 | 3.0 | 0.00 | 0.00 | 0.00 | 83 | 1016.1 |
| 20260507111545 | 44 | 60 | 0.0 | 3.0 | 0.00 | 0.00 | 0.00 | 84 | 1016.1 |
| 20260507111027 | 44 | 0 | 0.0 | 1.0 | 0.00 | 0.00 | 0.00 | 84 | 1015.9 |
| 20260507110528 | 44 | 32 | 0.0 | 2.0 | 0.00 | 0.00 | 0.00 | 85 | 1015.9 |
| 20260507110044 | 44 | 0 | 0.0 | 2.0 | 0.00 | 0.00 | 0.00 | 85 | 1015.9 |
| 20260507105530 | 44 | 0 | 0.0 | 1.0 | 0.00 | 0.00 | 0.00 | 85 | 1015.8 |
| 20260507105029 | 44 | 18 | 0.0 | 1.0 | 0.00 | 0.00 | 0.00 | 85 | 1015.7 |
| 20260507104544 | 44 | 0 | 0.0 | 1.0 | 0.00 | 0.00 | 0.00 | 85 | 1015.6 |
| 20260507104030 | 44 | 0 | 0.0 | 1.0 | 0.00 | 0.00 | 0.00 | 85 | 1015.5 |
| 20260507103529 | 44 | 0 | 0.0 | 2.0 | 0.00 | 0.00 | 0.00 | 85 | 1015.5 |
| 20260507103044 | 44 | 35 | 0.0 | 2.0 | 0.00 | 0.00 | 0.00 | 84 | 1015.5 |
| 20260507102528 | 44 | 77 | 0.0 | 2.0 | 0.00 | 0.00 | 0.00 | 84 | 1015.6 |
| 20260507102028 | 44 | 62 | 0.0 | 2.0 | 0.00 | 0.00 | 0.00 | 85 | 1015.5 |
| 20260507101540 | 45 | 0 | 0.0 | 3.0 | 0.00 | 0.00 | 0.00 | 85 | 1015.5 |
| 20260507101028 | 45 | 0 | 0.0 | 3.0 | 0.00 | 0.00 | 0.00 | 85 | 1015.6 |
| 20260507100530 | 45 | 56 | 0.0 | 3.0 | 0.00 | 0.00 | 0.00 | 85 | 1015.6 |
| 20260507100049 | 45 | 0 | 0.0 | 3.0 | 0.00 | 0.00 | 0.00 | 85 | 1015.5 |
| 20260507095531 | 45 | 0 | 0.0 | 3.0 | 0.00 | 0.00 | 0.00 | 86 | 1015.6 |
| 20260507095032 | 45 | 0 | 0.0 | 2.0 | 0.00 | 0.00 | 0.00 | 86 | 1015.5 |
| 20260507094546 | 45 | 0 | 0.0 | 1.0 | 0.00 | 0.00 | 0.00 | 87 | 1015.5 |
| 20260507094029 | 45 | 0 | 0.0 | 1.0 | 0.00 | 0.00 | 0.00 | 86 | 1015.6 |
| 20260507093531 | 45 | 0 | 0.0 | 1.0 | 0.00 | 0.00 | 0.00 | 86 | 1015.5 |
| 20260507093052 | 45 | 0 | 0.0 | 1.0 | 0.00 | 0.00 | 0.00 | 86 | 1015.4 |
| 20260507092530 | 46 | 0 | 0.0 | 2.0 | 0.00 | 0.00 | 0.00 | 85 | 1015.4 |
| 20260507092029 | 46 | 0 | 0.0 | 2.0 | 0.00 | 0.00 | 0.00 | 85 | 1015.4 |
| 20260507091548 | 46 | 11 | 0.0 | 2.0 | 0.00 | 0.00 | 0.00 | 86 | 1015.5 |
| 20260507091030 | 46 | 0 | 0.0 | 2.0 | 0.00 | 0.00 | 0.00 | 85 | 1015.4 |
| 20260507090530 | 46 | 0 | 0.0 | 2.0 | 0.00 | 0.00 | 0.00 | 85 | 1015.3 |
| 20260507090046 | 46 | 0 | 0.0 | 2.0 | 0.00 | 0.00 | 0.00 | 85 | 1015.2 |
| 20260507085529 | 47 | 0 | 0.0 | 1.0 | 0.00 | 0.01 | 0.00 | 84 | 1015.2 |
| 20260507085031 | 47 | 0 | 0.0 | 1.0 | 0.00 | 0.01 | 0.00 | 84 | 1015.0 |
| 20260507084546 | 47 | 0 | 0.0 | 1.0 | 0.00 | 0.01 | 0.00 | 84 | 1015.0 |
| 20260507084027 | 47 | 0 | 0.0 | 1.0 | 0.00 | 0.01 | 0.00 | 84 | 1015.0 |
| 20260507083532 | 47 | 0 | 0.0 | 1.0 | 0.00 | 0.01 | 0.00 | 84 | 1015.0 |
| 20260507083045 | 47 | 0 | 0.0 | 1.0 | 0.00 | 0.01 | 0.00 | 84 | 1014.9 |
| 20260507082531 | 47 | 78 | 0.0 | 2.0 | 0.00 | 0.01 | 0.00 | 84 | 1014.8 |
| 20260507082030 | 47 | 0 | 0.0 | 2.0 | 0.00 | 0.01 | 0.00 | 84 | 1014.9 |
| 20260507081549 | 47 | 0 | 0.0 | 1.0 | 0.00 | 0.01 | 0.00 | 84 | 1014.8 |
| 20260507081034 | 47 | 0 | 0.0 | 1.0 | 0.00 | 0.01 | 0.00 | 85 | 1014.9 |
| 20260507080530 | 47 | 60 | 0.0 | 1.0 | 0.00 | 0.01 | 0.00 | 86 | 1015.0 |
| 20260507080048 | 47 | 0 | 0.0 | 1.0 | 0.00 | 0.01 | 0.00 | 86 | 1014.9 |
| 20260507075531 | 47 | 0 | 0.0 | 1.0 | 0.00 | 0.04 | 0.00 | 87 | 1014.9 |
| 20260507075032 | 47 | 0 | 0.0 | 1.0 | 0.00 | 0.04 | 0.00 | 87 | 1014.9 |
| 20260507074556 | 46 | 0 | 0.0 | 1.0 | 0.00 | 0.04 | 0.00 | 88 | 1014.7 |
| 20260507074031 | 46 | 0 | 0.0 | 0.0 | 0.00 | 0.04 | 0.00 | 88 | 1014.7 |
| 20260507073528 | 46 | 0 | 0.0 | 0.0 | 0.00 | 0.04 | 0.00 | 88 | 1014.8 |
| 20260507073047 | 46 | 0 | 0.0 | 0.0 | 0.00 | 0.04 | 0.00 | 88 | 1015.0 |
| 20260507072529 | 46 | 0 | 0.0 | 0.0 | 0.00 | 0.04 | 0.00 | 88 | 1014.9 |
| 20260507072031 | 46 | 0 | 0.0 | 0.0 | 0.00 | 0.04 | 0.00 | 88 | 1014.8 |
| 20260507071547 | 46 | 0 | 0.0 | 0.0 | 0.00 | 0.04 | 0.00 | 88 | 1014.9 |
| 20260507071029 | 46 | 0 | 0.0 | 0.0 | 0.00 | 0.04 | 0.00 | 88 | 1014.9 |
| 20260507070530 | 46 | 0 | 0.0 | 0.0 | 0.00 | 0.04 | 0.00 | 88 | 1014.8 |
| 20260507070044 | 46 | 0 | 0.0 | 0.0 | 0.00 | 0.04 | 0.00 | 87 | 1015.0 |
| 20260507065531 | 47 | 0 | 0.0 | 0.0 | 0.00 | 0.12 | 0.00 | 87 | 1014.9 |
| 20260507065029 | 47 | 0 | 0.0 | 0.0 | 0.00 | 0.12 | 0.00 | 88 | 1015.0 |
| 20260507064544 | 47 | 0 | 0.0 | 0.0 | 0.00 | 0.12 | 0.00 | 87 | 1014.9 |
| 20260507064030 | 47 | 0 | 0.0 | 0.0 | 0.00 | 0.12 | 0.00 | 87 | 1015.0 |
| 20260507063529 | 47 | 0 | 0.0 | 0.0 | 0.00 | 0.12 | 0.00 | 87 | 1015.0 |
| 20260507063047 | 47 | 0 | 0.0 | 0.0 | 0.00 | 0.12 | 0.00 | 87 | 1015.1 |
| 20260507062531 | 47 | 0 | 0.0 | 0.0 | 0.00 | 0.12 | 0.00 | 87 | 1015.2 |
| 20260507062028 | 47 | 0 | 0.0 | 0.0 | 0.00 | 0.12 | 0.00 | 86 | 1015.2 |
| 20260507061541 | 48 | 0 | 0.0 | 0.0 | 0.00 | 0.12 | 0.00 | 86 | 1015.2 |
| 20260507061029 | 48 | 0 | 0.0 | 0.0 | 0.00 | 0.12 | 0.00 | 86 | 1015.1 |
| 20260507060531 | 48 | 0 | 0.0 | 0.0 | 0.00 | 0.12 | 0.00 | 85 | 1015.1 |
| 20260507060047 | 49 | 0 | 0.0 | 0.0 | 0.00 | 0.12 | 0.00 | 85 | 1015.0 |
| 20260507055529 | 49 | 0 | 0.0 | 1.0 | 0.00 | 0.31 | 0.00 | 84 | 1015.2 |
| 20260507055032 | 49 | 0 | 0.0 | 1.0 | 0.00 | 0.31 | 0.00 | 84 | 1015.2 |
| 20260507054611 | 49 | 0 | 0.0 | 1.0 | 0.00 | 0.31 | 0.00 | 83 | 1015.3 |
| 20260507054032 | 49 | 0 | 0.0 | 0.0 | 0.00 | 0.31 | 0.00 | 84 | 1015.2 |
| 20260507053531 | 49 | 0 | 0.0 | 0.0 | 0.00 | 0.31 | 0.00 | 84 | 1015.1 |
| 20260507053050 | 49 | 0 | 0.0 | 1.0 | 0.00 | 0.31 | 0.00 | 84 | 1015.1 |
| 20260507052531 | 50 | 0 | 0.0 | 1.0 | 0.00 | 0.31 | 0.00 | 83 | 1015.1 |
| 20260507052030 | 50 | 0 | 0.0 | 1.0 | 0.00 | 0.31 | 0.00 | 82 | 1015.1 |
| 20260507051544 | 50 | 0 | 0.0 | 2.0 | 0.00 | 0.31 | 0.00 | 82 | 1015.1 |
| 20260507051031 | 50 | 0 | 0.0 | 2.0 | 0.00 | 0.31 | 0.00 | 82 | 1015.0 |
| 20260507050531 | 50 | 0 | 0.0 | 2.0 | 0.00 | 0.31 | 0.00 | 81 | 1015.1 |
| 20260507050053 | 50 | 53 | 0.0 | 2.0 | 0.00 | 0.31 | 0.00 | 81 | 1015.0 |
| 20260507045528 | 50 | 28 | 0.0 | 1.0 | 0.00 | 0.45 | 0.00 | 81 | 1014.9 |
| 20260507045028 | 50 | 0 | 0.0 | 0.0 | 0.00 | 0.45 | 0.00 | 82 | 1014.9 |
| 20260507044548 | 50 | 0 | 0.0 | 0.0 | 0.00 | 0.45 | 0.00 | 82 | 1015.0 |
| 20260507044028 | 50 | 0 | 0.0 | 0.0 | 0.00 | 0.45 | 0.00 | 83 | 1014.9 |
| 20260507043528 | 50 | 0 | 0.0 | 0.0 | 0.00 | 0.45 | 0.00 | 84 | 1014.9 |
| 20260507043046 | 50 | 0 | 0.0 | 0.0 | 0.00 | 0.45 | 0.00 | 83 | 1014.9 |
| 20260507042530 | 50 | 0 | 0.0 | 0.0 | 0.00 | 0.45 | 0.00 | 82 | 1015.0 |
| 20260507042031 | 50 | 0 | 0.0 | 0.0 | 0.00 | 0.45 | 0.00 | 82 | 1015.3 |
| 20260507041549 | 49 | 0 | 0.0 | 0.0 | 0.00 | 0.45 | 0.00 | 81 | 1015.3 |
| 20260507041032 | 50 | 0 | 0.0 | 0.0 | 0.00 | 0.45 | 0.00 | 83 | 1015.2 |
| 20260507040532 | 50 | 0 | 0.0 | 0.0 | 0.00 | 0.45 | 0.00 | 83 | 1015.0 |
| 20260507040047 | 49 | 0 | 0.0 | 0.0 | 0.00 | 0.45 | 0.00 | 85 | 1015.2 |
| 20260507035533 | 49 | 0 | 0.0 | 0.0 | 0.00 | 0.48 | 0.45 | 85 | 1015.2 |
| 20260507035028 | 49 | 0 | 0.0 | 0.0 | 0.00 | 0.48 | 0.45 | 85 | 1015.2 |
| 20260507034557 | 49 | 0 | 0.0 | 0.0 | 0.00 | 0.48 | 0.45 | 83 | 1015.3 |
| 20260507034030 | 50 | 0 | 0.0 | 0.0 | 0.00 | 0.48 | 0.45 | 84 | 1015.5 |
| 20260507033531 | 49 | 0 | 0.0 | 0.0 | 0.00 | 0.48 | 0.45 | 84 | 1015.4 |
| 20260507033052 | 50 | 0 | 0.0 | 0.0 | 0.00 | 0.48 | 0.45 | 84 | 1015.3 |
| 20260507032530 | 50 | 0 | 0.0 | 0.0 | 0.00 | 0.48 | 0.45 | 84 | 1015.4 |
| 20260507032028 | 50 | 0 | 0.0 | 0.0 | 0.00 | 0.48 | 0.45 | 83 | 1015.4 |
| 20260507031601 | 50 | 0 | 0.0 | 0.0 | 0.00 | 0.48 | 0.45 | 83 | 1015.3 |
| 20260507031032 | 50 | 0 | 0.0 | 0.0 | 0.00 | 0.48 | 0.45 | 82 | 1015.2 |
| 20260507030531 | 50 | 0 | 0.0 | 0.0 | 0.00 | 0.48 | 0.45 | 82 | 1015.1 |
| 20260507030051 | 50 | 0 | 0.0 | 0.0 | 0.00 | 0.48 | 0.45 | 82 | 1015.2 |
| 20260507025530 | 50 | 0 | 0.0 | 0.0 | 0.00 | 0.52 | 0.45 | 81 | 1015.0 |
| 20260507025028 | 50 | 0 | 0.0 | 0.0 | 0.00 | 0.52 | 0.45 | 80 | 1015.3 |
| 20260507024544 | 51 | 0 | 0.0 | 0.0 | 0.00 | 0.52 | 0.45 | 80 | 1015.0 |
| 20260507024031 | 51 | 0 | 0.0 | 0.0 | 0.00 | 0.52 | 0.45 | 79 | 1015.0 |
| 20260507023528 | 51 | 0 | 0.0 | 0.0 | 0.00 | 0.52 | 0.45 | 79 | 1014.9 |
| 20260507023049 | 52 | 0 | 0.0 | 0.0 | 0.00 | 0.52 | 0.45 | 78 | 1014.6 |
| 20260507022535 | 52 | 0 | 0.0 | 0.0 | 0.00 | 0.52 | 0.45 | 77 | 1014.7 |
| 20260507022032 | 52 | 0 | 0.0 | 0.0 | 0.00 | 0.52 | 0.45 | 76 | 1014.9 |
| 20260507021544 | 52 | 0 | 0.0 | 0.0 | 0.00 | 0.52 | 0.45 | 75 | 1014.7 |
| 20260507021029 | 53 | 0 | 0.0 | 0.0 | 0.00 | 0.52 | 0.45 | 74 | 1014.6 |
| 20260507020531 | 53 | 0 | 0.0 | 0.0 | 0.00 | 0.52 | 0.45 | 71 | 1014.5 |
| 20260507020048 | 54 | 0 | 0.0 | 0.0 | 0.00 | 0.52 | 0.45 | 71 | 1014.5 |
| 20260507015530 | 54 | 0 | 0.0 | 0.0 | 0.00 | 0.52 | 0.45 | 70 | 1014.4 |
| 20260507015030 | 55 | 0 | 0.0 | 0.0 | 0.00 | 0.52 | 0.45 | 69 | 1014.5 |
| 20260507014549 | 55 | 0 | 0.0 | 0.0 | 0.00 | 0.52 | 0.45 | 67 | 1014.2 |
| 20260507014031 | 55 | 0 | 0.0 | 1.0 | 0.00 | 0.52 | 0.45 | 66 | 1014.0 |
| 20260507013530 | 55 | 0 | 0.0 | 1.0 | 0.00 | 0.52 | 0.45 | 65 | 1014.1 |
| 20260507013047 | 55 | 0 | 0.0 | 1.0 | 0.00 | 0.52 | 0.45 | 65 | 1014.0 |
| 20260507012531 | 56 | 0 | 0.0 | 1.0 | 0.00 | 0.52 | 0.45 | 65 | 1014.0 |
| 20260507012031 | 56 | 0 | 0.0 | 1.0 | 0.00 | 0.52 | 0.45 | 64 | 1014.0 |
| 20260507011546 | 56 | 0 | 0.0 | 1.0 | 0.00 | 0.52 | 0.45 | 63 | 1014.1 |
| 20260507011031 | 56 | 0 | 0.0 | 1.0 | 0.00 | 0.52 | 0.45 | 64 | 1014.3 |
| 20260507010531 | 56 | 0 | 0.0 | 5.0 | 0.00 | 0.52 | 0.45 | 62 | 1013.9 |
| 20260507010046 | 56 | 0 | 0.0 | 5.0 | 0.00 | 0.52 | 0.45 | 62 | 1014.0 |
| 20260507005531 | 57 | 40 | 2.0 | 5.0 | 0.00 | 0.52 | 0.45 | 61 | 1013.9 |
| 20260507005030 | 57 | 4 | 1.0 | 3.0 | 0.00 | 0.52 | 0.45 | 61 | 1014.1 |
| 20260507004543 | 57 | 13 | 1.0 | 4.0 | 0.00 | 0.52 | 0.45 | 61 | 1013.8 |